Caslav, Czech Republic

11:17 AM CEST on September 28, 2016 (GMT +0200)
Caslav

Weather History for LKCV - January, 2013

Change the Weather History Date:

Tuesday, January 8, 2013

  Actual Average Record
Temperature  
Mean Temperature 37 °F -  
Max Temperature 41 °F - - ()
Min Temperature 33 °F - - ()
Degree Days  
Heating Degree Days 28    
Moisture  
Dew Point 35 °F    
Average Humidity 92    
Maximum Humidity 100    
Minimum Humidity 87    
Precipitation  
Precipitation 0.00 in - - ()
Sea Level Pressure  
Sea Level Pressure 30.21 in    
Wind  
Wind Speed 2 mph ()    
Max Wind Speed 9 mph    
Max Gust Speed -    
Visibility 3.5 miles    
Events Fog , Rain    
T = Trace of Precipitation, MM = Missing Value Source: Averaged Metar Reports

Daily Weather History Graph

Daily Weather History Graph

Search for Another Location

Airport or City:

Trip Planner

Search our weather history database for the weather conditions in past years. The results will help you decide how hot, cold, wet, or windy it might be!

Date:

Astronomy

Jan. 08, 2013 Rise Set
Actual Time 7:54 AM CET 4:15 PM CET
Civil Twilight 7:17 AM CET 4:53 PM CET
Nautical Twilight 6:36 AM CET 5:34 PM CET
Astronomical Twilight 5:57 AM CET 6:13 PM CET
Moon 4:04 AM CET (1/8) 1:04 PM CET (1/8)
Length of Visible Light 9h 35m
Length of Day
8h 20m
Waning Crescent, 16% of the Moon is Illuminated
Jan 8
Waning Crescent
Jan 11
New
Jan 19
First Quarter
Jan 27
Full
Feb 3
Last Quarter

Hourly Weather History & Observations

Time (CET) Temp. Windchill Dew Point Humidity Pressure Visibility Wind Dir Wind Speed Gust Speed Precip Events Conditions
12:00 AM 33.8 °F 30.8 °F 30.2 °F 87% 30.33 in 6.2 mi East 3.5 mph - N/A   Overcast
1:00 AM 33.8 °F 30.8 °F 30.2 °F 87% 30.30 in 6.2 mi East 3.5 mph - N/A   Overcast
2:00 AM 33.8 °F - 30.2 °F 87% 30.30 in 6.2 mi SE 2.3 mph - N/A   Overcast
3:00 AM 33.8 °F - 32.0 °F 93% 30.30 in 5.0 mi SE 2.3 mph - N/A Rain Light Rain
4:00 AM 33.8 °F 29.6 °F 32.0 °F 93% 30.27 in 5.0 mi SE 4.6 mph - N/A Rain Light Rain
5:00 AM 33.8 °F 30.8 °F 32.0 °F 93% 30.27 in 3.7 mi ESE 3.5 mph - N/A Rain Light Rain
5:53 AM 35.6 °F - 33.8 °F 93% 30.24 in 3.7 mi SE 2.3 mph - N/A Rain Light Rain
6:00 AM 35.6 °F - 32.0 °F 87% 30.24 in 3.7 mi SE 2.3 mph - N/A Rain Light Rain
6:31 AM 35.6 °F - 33.8 °F 93% 30.24 in 3.7 mi SE 2.3 mph - N/A Rain Light Rain
7:00 AM 35.6 °F - 33.8 °F 93% 30.24 in 3.7 mi SE 2.3 mph - N/A Rain Light Rain
9:00 AM 33.8 °F - 32.0 °F 93% 30.27 in 2.5 mi WNW 2.3 mph - N/A Rain Light Rain
10:00 AM 35.6 °F - 33.8 °F 93% 30.24 in 1.9 mi Calm Calm - N/A Rain Light Rain
11:00 AM 37.4 °F - 35.6 °F 93% 30.21 in 1.9 mi Calm Calm - N/A Rain Light Rain
11:43 AM 39.2 °F - 37.4 °F 93% 30.21 in 3.7 mi Variable 1.2 mph - N/A Rain Light Rain
12:00 PM 41.0 °F 39.0 °F 39.2 °F 93% 30.18 in 5.0 mi SSW 3.5 mph - N/A Rain Light Rain
1:00 PM 41.0 °F 38.0 °F 37.4 °F 87% 30.18 in 6.2 mi WSW 4.6 mph - N/A Rain Light Rain
2:00 PM 41.0 °F - 37.4 °F 87% 30.15 in 5.0 mi SW 2.3 mph - N/A Rain Light Rain
3:00 PM 41.0 °F - 39.2 °F 93% 30.15 in 5.0 mi East 1.2 mph - N/A Rain Light Rain
3:33 PM 41.0 °F - 39.2 °F 93% 30.15 in 1.9 mi Calm Calm - N/A Rain Light Rain
4:37 PM 37.4 °F 34.9 °F 35.6 °F 93% 30.15 in 0.4 mi NW 3.5 mph - N/A Fog Drizzle
5:00 PM 37.4 °F - 35.6 °F 93% 30.15 in 0.4 mi WNW 2.3 mph - N/A Fog Drizzle
8:00 PM 37.4 °F - 35.6 °F 93% 30.15 in 0.4 mi Calm Calm - N/A Fog Drizzle
8:24 PM 37.4 °F - 37.4 °F 100% 30.15 in 1.2 mi Calm Calm - N/A   Overcast
9:00 PM 37.4 °F - 37.4 °F 100% 30.15 in 1.9 mi Calm Calm - N/A   Overcast
10:00 PM 41.0 °F - 39.2 °F 93% 30.15 in 2.5 mi Variable 2.3 mph - N/A   Overcast
11:00 PM 41.0 °F 35.2 °F 39.2 °F 93% 30.15 in 5.0 mi West 9.2 mph - N/A Rain Light Rain